FW8155 Weather Reports


time (UTC)temp
F
wind
direction
speed
knots
gust
knots
rain 1hr
in
rain 24hr
in
rain mn
in
humidity
%
barometer
mb
20260505011721 57 49 15.6 18.2 0.00 0.00 0.00 42 1008.1
20260505011219 57 24 9.6 20.9 0.00 0.00 0.00 42 1008.1
20260505010714 57 37 8.7 17.4 0.00 0.00 0.00 42 1008.0
20260505010211 57 52 19.1 19.1 0.00 0.00 0.00 42 1007.9
20260505005707 58 31 9.6 17.4 0.00 0.00 0.00 41 1007.8
20260505005205 58 57 8.7 20.0 0.00 0.00 0.00 41 1007.9
20260505004702 58 32 15.6 22.6 0.00 0.00 0.00 42 1007.4
20260505004158 58 31 6.1 20.9 0.00 0.00 0.00 41 1007.3
20260505003656 59 29 9.6 17.4 0.00 0.00 0.00 41 1007.3
20260505003153 59 42 13.0 20.9 0.00 0.00 0.00 41 1007.5
20260505002649 59 35 15.6 20.9 0.00 0.00 0.00 41 1007.2
20260505002148 59 62 11.3 20.0 0.00 0.00 0.00 40 1007.0
20260505001644 60 84 9.6 13.9 0.00 0.00 0.00 40 1007.4
20260505001142 60 48 9.6 18.2 0.00 0.00 0.00 40 1007.3
20260505000638 60 27 14.8 20.0 0.00 0.00 0.00 39 1007.3
20260505000137 61 49 12.2 18.2 0.00 0.00 0.00 39 1007.2
20260504235632 61 26 7.0 14.8 0.00 0.00 0.00 38 1007.4
20260504235129 61 57 3.5 14.8 0.00 0.00 0.00 38 1007.4
20260504234626 61 30 12.2 17.4 0.00 0.00 0.00 38 1007.2
20260504234124 62 47 13.9 13.9 0.00 0.00 0.00 37 1007.3
20260504233619 62 43 7.0 15.6 0.00 0.00 0.00 37 1007.4
20260504233115 62 32 13.0 17.4 0.00 0.00 0.00 37 1007.3
20260504232614 62 57 6.1 17.4 0.00 0.00 0.00 37 1007.7
20260504232110 63 20 7.8 13.9 0.00 0.00 0.00 36 1007.5
20260504231606 62 45 7.8 14.8 0.00 0.00 0.00 36 1007.3
20260504231103 63 40 4.3 12.2 0.00 0.00 0.00 36 1007.3
20260504230559 63 61 6.1 12.2 0.00 0.00 0.00 35 1007.1
20260504230058 63 13 10.4 13.9 0.00 0.00 0.00 36 1007.2
20260504225555 63 35 9.6 13.0 0.00 0.00 0.00 36 1007.2
20260504225052 62 32 10.4 17.4 0.00 0.00 0.00 36 1007.0
20260504224549 63 27 12.2 19.1 0.00 0.00 0.00 35 1006.7
20260504224046 63 62 6.1 19.1 0.00 0.00 0.00 35 1006.7
20260504223543 63 45 9.6 17.4 0.00 0.00 0.00 35 1006.7
20260504223038 63 30 10.4 17.4 0.00 0.00 0.00 35 1006.6
20260504222536 63 48 11.3 16.5 0.00 0.00 0.00 35 1006.7
20260504222033 64 63 13.9 18.2 0.00 0.00 0.00 34 1006.7
20260504221530 64 39 9.6 18.2 0.00 0.00 0.00 34 1006.6
20260504221027 64 25 20.9 20.9 0.00 0.00 0.00 34 1006.9
20260504220523 64 34 13.9 17.4 0.00 0.00 0.00 34 1006.5
20260504220021 64 21 14.8 20.0 0.00 0.00 0.00 34 1006.9
20260504215517 64 26 12.2 20.0 0.00 0.00 0.00 34 1006.9
20260504215014 64 40 12.2 20.0 0.00 0.00 0.00 34 1006.7
20260504214510 65 37 19.1 20.0 0.00 0.00 0.00 33 1006.6
20260504214006 65 8 9.6 26.1 0.00 0.00 0.00 33 1006.4
20260504213503 65 56 7.8 17.4 0.00 0.00 0.00 33 1006.6
20260504213001 66 28 11.3 20.0 0.00 0.00 0.00 33 1006.5
20260504212456 65 20 9.6 20.9 0.00 0.00 0.00 33 1006.5
20260504211954 66 358 9.6 19.1 0.00 0.00 0.00 32 1006.5
20260504211450 65 48 6.1 18.2 0.00 0.00 0.00 32 1006.6
20260504210948 65 26 10.4 22.6 0.00 0.00 0.00 32 1006.6
20260504210444 66 62 14.8 17.4 0.00 0.00 0.00 31 1006.3
20260504205941 66 31 9.6 20.0 0.00 0.00 0.00 32 1006.5
20260504205439 66 32 11.3 20.9 0.00 0.00 0.00 32 1006.5
20260504204937 66 43 15.6 24.3 0.00 0.00 0.00 31 1006.6
20260504204435 67 15 14.8 21.7 0.00 0.00 0.00 31 1006.7
20260504203934 66 28 14.8 19.1 0.00 0.00 0.00 32 1006.7
20260504203431 66 18 12.2 19.1 0.00 0.00 0.00 31 1006.5
20260504202927 67 39 12.2 14.8 0.00 0.00 0.00 31 1006.4
20260504202424 68 28 19.1 20.9 0.00 0.00 0.00 31 1006.5
20260504201920 69 47 7.8 19.1 0.00 0.00 0.00 30 1006.5
20260504201418 69 11 9.6 23.5 0.00 0.00 0.00 30 1006.3
20260504200915 70 36 10.4 20.9 0.00 0.00 0.00 30 1006.5
20260504200412 68 25 12.2 21.7 0.00 0.00 0.00 31 1006.3
20260504195909 69 24 17.4 24.3 0.00 0.00 0.00 30 1006.4
20260504195404 69 29 10.4 23.5 0.00 0.00 0.00 30 1006.3
20260504194901 68 53 14.8 19.1 0.00 0.00 0.00 30 1006.2
20260504194357 70 23 13.9 19.1 0.00 0.00 0.00 30 1006.1
20260504193853 68 58 9.6 22.6 0.00 0.00 0.00 30 1006.2
20260504193350 67 28 7.8 14.8 0.00 0.00 0.00 32 1006.4
20260504192849 68 15 13.9 20.9 0.00 0.00 0.00 31 1006.3
20260504192346 70 23 14.8 24.3 0.00 0.00 0.00 30 1006.5
20260504191845 70 26 15.6 24.3 0.00 0.00 0.00 30 1006.4
20260504191342 70 14 11.3 21.7 0.00 0.00 0.00 30 1006.5
20260504190838 71 2 11.3 20.9 0.00 0.00 0.00 30 1006.4
20260504190333 70 33 18.2 18.2 0.00 0.00 0.00 31 1006.6
20260504185830 69 19 17.4 20.9 0.00 0.00 0.00 32 1006.6
20260504185327 70 36 11.3 23.5 0.00 0.00 0.00 32 1006.3
20260504184823 70 42 20.9 23.5 0.00 0.00 0.00 32 1006.4
20260504184319 70 19 15.6 25.2 0.00 0.00 0.00 32 1006.1
20260504183815 70 70 6.1 14.8 0.00 0.00 0.00 30 1006.1
20260504183313 69 39 12.2 18.2 0.00 0.00 0.00 31 1006.2
20260504182811 70 66 9.6 20.0 0.00 0.00 0.00 30 1006.1
20260504182308 70 34 8.7 12.2 0.00 0.00 0.00 28 1006.1
20260504181805 69 50 8.7 15.6 0.00 0.00 0.00 29 1006.2
20260504181302 68 75 9.6 19.1 0.00 0.00 0.00 31 1006.1
20260504180801 69 37 8.7 14.8 0.00 0.00 0.00 30 1006.1
20260504180259 69 23 11.3 20.0 0.00 0.00 0.00 30 1006.2
20260504175757 71 67 9.6 21.7 0.00 0.00 0.00 29 1006.0
20260504175253 69 38 9.6 20.9 0.00 0.00 0.00 31 1005.8
20260504174751 69 19 11.3 18.2 0.00 0.00 0.00 31 1006.1
20260504174249 73 75 2.6 5.2 0.00 0.00 0.00 21 1006.1
20260504173745 74 9 4.3 6.1 0.00 0.00 0.00 20 1006.1
20260504173242 73 127 0.0 4.3 0.00 0.00 0.00 21 1006.1
20260504172739 74 122 6.1 7.8 0.00 0.00 0.00 21 1005.8
20260504172236 73 143 4.3 7.8 0.00 0.00 0.00 22 1006.0
20260504171732 73 73 2.6 7.0 0.00 0.00 0.00 21 1005.7
20260504171229 71 157 6.1 7.0 0.00 0.00 0.00 23 1005.8
20260504170726 73 83 0.0 4.3 0.00 0.00 0.00 22 1005.8
20260504170223 71 0 3.5 5.2 0.00 0.00 0.00 23 1006.3
20260504160142 70 39 2.6 4.3 0.00 0.00 0.00 26 1006.3
20260504151109 69 233 1.7 2.6 0.00 0.00 0.00 30 1006.1
20260504150607 68 217 2.6 4.3 0.00 0.00 0.00 30 1006.4
20260504150103 67 201 1.7 5.2 0.00 0.00 0.00 32 1006.3
20260504141032 60 352 2.6 6.1 0.00 0.00 0.00 38 1007.0
20260504140529 59 332 1.7 7.8 0.00 0.00 0.00 39 1006.5
20260504130453 47 240 4.3 4.3 0.00 0.00 0.00 54 1006.5
20260504110340 42 331 3.5 4.3 0.00 0.00 0.00 62 1006.1
20260504100257 47 227 2.6 4.3 0.00 0.00 0.00 58 1006.4
20260504081651 45 260 1.7 1.7 0.00 0.00 0.00 60 1007.2
20260504081147 45 237 1.7 2.6 0.00 0.00 0.00 60 1007.2
20260504080644 45 233 1.7 1.7 0.00 0.00 0.00 62 1007.4
20260504080140 45 235 0.0 2.6 0.00 0.00 0.00 61 1007.4
20260504070108 47 172 0.0 0.9 0.00 0.00 0.00 61 1008.2
20260504050456 49 54 0.0 1.7 0.00 0.00 0.00 58 1008.9
20260504045953 49 26 2.6 2.6 0.00 0.00 0.00 58 1009.0
20260504045449 49 39 2.6 2.6 0.00 0.00 0.00 57 1008.9
20260504044945 49 32 1.7 2.6 0.00 0.00 0.00 57 1008.9
20260504044443 50 36 1.7 2.6 0.00 0.00 0.00 57 1008.9
20260504043940 50 25 2.6 2.6 0.00 0.00 0.00 56 1009.2
20260504043437 50 29 2.6 2.6 0.00 0.00 0.00 56 1009.2
20260504042935 50 36 1.7 2.6 0.00 0.00 0.00 56 1009.2
20260504042431 50 36 1.7 2.6 0.00 0.00 0.00 55 1009.5
20260504041928 50 121 1.7 2.6 0.00 0.00 0.00 56 1009.5
20260504041424 50 120 0.9 1.7 0.00 0.00 0.00 56 1009.5
20260504040920 50 74 0.0 1.7 0.00 0.00 0.00 55 1009.2
20260504040418 50 74 0.0 2.6 0.00 0.00 0.00 54 1009.8
20260504035914 51 147 2.6 3.5 0.00 0.00 0.00 54 1009.5
20260504035412 51 123 1.7 3.5 0.00 0.00 0.00 53 1009.7
20260504034908 52 138 2.6 3.5 0.00 0.00 0.00 52 1009.6
20260504034406 52 141 3.5 3.5 0.00 0.00 0.00 52 1009.8
20260504033903 53 129 1.7 2.6 0.00 0.00 0.00 53 1009.9
20260504033400 52 102 1.7 1.7 0.00 0.00 0.00 53 1009.8
20260504032857 52 151 0.0 1.7 0.00 0.00 0.00 53 1009.8
20260504032354 53 99 0.0 0.9 0.00 0.00 0.00 51 1009.7
20260504031850 54 106 0.0 2.6 0.00 0.00 0.00 50 1009.6
20260504031348 55 85 3.5 4.3 0.00 0.00 0.00 49 1009.7
20260504030844 55 43 4.3 5.2 0.00 0.00 0.00 47 1009.6
20260504030342 56 29 4.3 6.1 0.00 0.00 0.00 46 1009.7
20260504025837 57 31 6.1 8.7 0.00 0.00 0.00 46 1009.8
20260504025334 57 49 7.8 8.7 0.00 0.00 0.00 46 1009.7
20260504024831 57 32 6.1 12.2 0.00 0.00 0.00 44 1009.6
20260504024327 58 24 7.8 12.2 0.00 0.00 0.00 43 1009.7
20260504023824 59 36 9.6 10.4 0.00 0.00 0.00 42 1009.8
20260504023321 60 8 9.6 14.8 0.00 0.00 0.00 41 1009.5
20260504022817 60 24 4.3 14.8 0.00 0.00 0.00 41 1009.5
20260504022314 61 36 11.3 17.4 0.00 0.00 0.00 38 1009.6
20260504021810 62 18 14.8 20.0 0.00 0.00 0.00 33 1009.1
20260504021308 62 0 4.3 7.8 0.00 0.00 0.00 31 1009.5
20260504020805 62 330 5.2 5.2 0.00 0.00 0.00 31 1009.1
20260504020302 62 341 3.5 3.5 0.00 0.00 0.00 30 1008.6
20260504015757 62 15 0.0 0.9 0.00 0.00 0.00 31 1008.8
20260504015254 63 98 0.9 1.7 0.00 0.00 0.00 30 1008.5
20260504014750 64 125 1.7 2.6 0.00 0.00 0.00 32 1008.5
20260504014246 64 90 0.9 1.7 0.00 0.00 0.00 30 1008.2
20260504013744 64 0 0.9 1.7 0.00 0.00 0.00 30 1008.3
20260504013242 66 0 0.0 1.7 0.00 0.00 0.00 28 1008.2
20260504012738 66 272 4.3 8.7 0.00 0.00 0.00 28 1008.1
20260504012236 66 117 0.9 3.5 0.00 0.00 0.00 28 1008.2